Powrót do katalogu

TITAN 3C TRANSTAGE DEB

LostMEO
NORAD 38695·DEBRIS·🇺🇸 United States

Wystrzelony Sep 26, 1968 z Cape Canaveral Space Force Station

Loading…

Następne Przeloty (najbliższe 24 godziny)

TLE

NieaktualneSource: Space-Track

Epoka: Jan 9, 2026, 17:39 UTC

1 38695U 68081V   26009.73578191 -.00000090  00000-0  00000-0 0  9992
2 38695   1.9319  22.3763 0438520 269.4944 164.5784  0.99391606 61778

Śledź TITAN 3C TRANSTAGE DEB w czasie rzeczywistym z AllMySat

Download on the App Store